Starlink 32511

operational
NORAD ID: 61727 Int'l Des: 2024-196 Owner: SPXS Country: US Constellation: starlink
LEOCIRCULAR

Über Starlink 32511

Beschreibung wird geladen...

Live-Position

3D-Globus wird geladen...

Nächste Überflüge

Höhenverlauf

Altitude vs Time

uPlot chart will show altitude changes over time

Zweizeiliger Elementsatz

1 61727U 24196W 25352.61408443 -.00001212 00000-0 -28822-4 0 9996
2 61727 53.1593 117.9199 0000786 76.6410 283.4679 15.30199173 64742
Epoch: 18. Dez. 2025 • Age: 46 hours

Aktueller Status

Höhe 479.0 km
Geschwindigkeit 7.63 km/s
Subsatellitenpunkt -13.42°S, 14.03°E
Startdatum 30. Okt. 2024
Alter 1.1 years
Typ internet

Technische Details

Klassifizierung Payload
Masse 730.00 kg
Trockenmasse 700.00 kg
Gesamtmasse 730.00 kg
Länge 0.30 m
Durchmesser 4.10 m
Spannweite 29.00 m
Form Box + pan
Hersteller SPXS
Bus-Typ Starlink V2M
Phasenstatus In Orbit
Besitzer/Staat SPXS/US

Große Konstellationen

Loading constellations...